User: anonymous   Login
Location: Recife
(8.0585°S, 34.8848°W)
Time: 11:56:02
(UTC-03:00)
Language:

Explorer 11/Cluster Stage 4 - Orbit

View from above orbital plane
View from above orbital plane
View from above satellite
View from above satellite

Ground track
Ground track

The orbit is defined by the following mean orbital elements,

1 00107U          26103.94370507 +.00000000 +00000-0 +11136-3 0 00003
2 00107  28.7805 326.8007 0494042 248.4325 106.2910 14.21915206    07
Epoch (UTC): 13 April 2026 22:38:56
Eccentricity: 0.0494042
inclination: 28.7805°
perigee height: 463 km
apogee height: 1174 km
right ascension of ascending node: 326.8007°
argument of perigee: 248.4325°
revolutions per day: 14.21915206
mean anomaly at epoch: 106.2910°

The dashed part of the orbit path shows where the satellite is in the earth's shadow,  

DLR